KEPLER-7 (C3PO)

Last updated on Thu Apr 22 2021 00:02:03 GMT+0000 (Coordinated Universal Time)

1 47949U 21022T 21111.28570403 .00001735 00000-0 12353-3 0 9998 2 47949 97.5608 14.5811 0021969 142.9378 217.3371 15.05747791 4454

Satellite not in orbit

KEPLER-7 (C3PO)